STARLINK-5210, 54082

Orbit data source: Space-Track

STARLINK-5210, 54082 is a payload satellite owned by SpaceX/Seattle (US) in LEO that was launched on Thu, 20 Oct 2022 UTC via an FALCON 9 launch vehicle from the Air Force Eastern Test Range (AFETR). Payload-class satellites include a variety of spacecraft equipped with specific instruments for various scientific and technological missions. These include communications satellites like Starlink; space stations such as the ISS; scientific satellites like the Hubble; Earth observation satellites from companies like Planet Labs, Umbra, and HawkEye 360; GPS; miniature CubeSats for education and research; and military/defense satellites.

Loading next visibility...
Identifier
54082, 2022-136AH
Orbit
LEO
Country
Flag of USUS
Related business
Manufacturer
SpaceX/Seattle
Mission
Operational Commercial Communications
Bus & Motor
STARLINK, Unknown motor
Mass
305 kg wet, ~290 kg dry
Launch date (UTC)
2022-10-20 (3 years ago)
Launch vehicle
FALCON 9
Launch site
Air Force Eastern Test Range (AFETR)
Object type
Payload
Rocket body
Debris
Shape & HBR
Box + 1 Pan, 4.4 m
Radar Cross Section
13.562 m², Large (>1 m²)

Expand to show TLE details & history
Last TLE update: 20 hours ago

TLE from 20 hours ago
0 STARLINK-5210
1 54082U 22136AH  25260.68506694  .00000106  00000-0  24806-4 0  9993
2 54082  53.2191  30.9519 0002512  96.1344 263.9935 15.08839456160863
Epoch: 2025-09-17T16:26Z
TLE epoch observation values (Epoch: 2025-09-17T16:26:29.783Z)
Latitude
0.00002°
Longitude
147.47035°
Altitude
540.825 km
Speed
7.593 km/s
True Right ascension
02h 03m 48s
True Declination
0° 00' 00"
Sunlit
Object was in full shadow at epoch
Visualization orbit readout
Latitude
Unknown
Longitude
Unknown
Altitude
Unknown
Speed
Unknown
Apparent Right ascension
Unknown
Apparent Declination
Unknown
Sunlit
N/A
Visualization observer readout
Local Sidereal Time
05:03:32
Azimuth
Unknown
Elevation
Unknown
Doppler factor
Unknown
Orbital elements
Apogee altitude
541.728 km
Perigee altitude
538.252 km
Semi-major axis
6,918.127 km
Eccentricity
0.00025
Inclination
53.2191°
RAAN
30.9519°
Arg. of periapsis
96.1344°
True anomaly
263.96487°
Mean anomaly
263.9935°
Eccentric anomaly
263.97919°
Mean motion
3.7719 °/min
Orbital period
95.44 mins
BSTAR
0.000024806
Loading maneuver chart data...
Computing Atmospheric mass density...
Loading historical data...
Loading historical data...
Loading historical data...
Loading historical data...
Loading historical data...
Loading historical data...
Loading historical data...

Documentation

Showing up to 5 results
|